Weather History for PASI - January, 2013

Change the Weather History Date:

Tuesday, January 1, 2013

  Actual Average Record
Temperature  
Mean Temperature 44 °F -  
Max Temperature 48 °F 38 °F 52 °F (1981)
Min Temperature 39 °F 31 °F 5 °F (1950)
Degree Days  
Heating Degree Days 22    
Moisture  
Dew Point 33 °F    
Average Humidity 70    
Maximum Humidity 96    
Minimum Humidity 41    
Precipitation  
Precipitation 0.51 in - - ()
Sea Level Pressure  
Sea Level Pressure 29.87 in    
Wind  
Wind Speed 21 mph (ESE)    
Max Wind Speed 32 mph    
Max Gust Speed 46 mph    
Visibility 8 miles    
Events Rain    
Averages and records for this station are not official NWS values.
T = Trace of Precipitation, MM = Missing Value Source: NWS Daily Summary

Daily Weather History Graph

Daily Weather History Graph

Search for Another Location

Airport or City:

Trip Planner

Search our weather history database for the weather conditions in past years. The results will help you decide how hot, cold, wet, or windy it might be!

Date:

Astronomy

Jan. 01, 2013 Rise Set
Actual Time 8:39 AM AKST 3:31 PM AKST
Civil Twilight 7:50 AM AKST 4:20 PM AKST
Nautical Twilight 7:00 AM AKST 5:10 PM AKST
Astronomical Twilight 6:13 AM AKST 5:57 PM AKST
Moon 9:13 PM AKST (1/1) 9:57 AM AKST (1/1)
Length of Visible Light 8h 29m
Length of Day
6h 51m
Waning Gibbous, 82% of the Moon is Illuminated
Jan 1
Waning Gibbous
Jan 4
Last Quarter
Jan 11
New
Jan 18
First Quarter
Jan 26
Full

Hourly Weather History & Observations

Time (AKST) Temp. Windchill Dew Point Humidity Pressure Visibility Wind Dir Wind Speed Gust Speed Precip Events Conditions
12:53 AM 44.1 °F 36.5 °F 32.0 °F 63% 30.17 in 10.0 mi ESE 17.3 mph 21.9 mph N/A   Clear
1:53 AM 44.1 °F 36.2 °F 32.0 °F 63% 30.14 in 10.0 mi ESE 18.4 mph 27.6 mph N/A   Scattered Clouds
3:53 AM 45.0 °F 37.6 °F 30.9 °F 58% 30.10 in 10.0 mi ESE 17.3 mph 25.3 mph N/A   Scattered Clouds
4:53 AM 45.0 °F 37.1 °F 30.0 °F 56% 30.07 in 10.0 mi ESE 19.6 mph 28.8 mph N/A   Partly Cloudy
5:53 AM 46.0 °F 37.0 °F 28.0 °F 50% 30.01 in 10.0 mi ESE 27.6 mph 33.4 mph N/A   Clear
6:53 AM 46.0 °F 38.3 °F 28.9 °F 51% 29.99 in 7.0 mi ESE 20.7 mph 31.1 mph N/A   Scattered Clouds
7:53 AM 46.0 °F 37.6 °F 28.0 °F 50% 29.95 in 7.0 mi ESE 24.2 mph 32.2 mph N/A   Scattered Clouds
8:53 AM 46.0 °F 36.7 °F 30.0 °F 54% 29.91 in 10.0 mi ESE 29.9 mph 38.0 mph N/A   Overcast
9:53 AM 48.0 °F - 26.1 °F 42% 29.85 in 10.0 mi ESE 32.2 mph 46.0 mph N/A   Overcast
10:53 AM 48.9 °F - 26.1 °F 41% 29.83 in 10.0 mi ESE 32.2 mph 46.0 mph N/A   Overcast
11:53 AM 48.0 °F - 27.0 °F 44% 29.82 in 10.0 mi ESE 29.9 mph 39.1 mph N/A   Overcast
12:53 PM 48.9 °F - 27.0 °F 43% 29.83 in 10.0 mi East 28.8 mph 35.7 mph 0.00 in Rain Light Rain
1:53 PM 46.9 °F - 30.0 °F 52% 29.82 in 10.0 mi ESE 21.9 mph 34.5 mph 0.00 in   Overcast
2:53 PM 42.1 °F 32.3 °F 35.1 °F 76% 29.80 in 6.0 mi ESE 24.2 mph 33.4 mph 0.00 in Rain Light Rain
3:38 PM 42.8 °F 33.5 °F 35.6 °F 76% 29.79 in 7.0 mi ESE 23.0 mph 29.9 mph 0.02 in Rain Light Rain
3:53 PM 42.1 °F 32.3 °F 36.0 °F 79% 29.79 in 8.0 mi ESE 24.2 mph 32.2 mph 0.02 in Rain Light Rain
4:26 PM 42.8 °F 33.3 °F 37.4 °F 81% 29.79 in 7.0 mi ESE 24.2 mph 35.7 mph 0.02 in Rain Light Rain
4:53 PM 42.1 °F 32.6 °F 37.0 °F 82% 29.80 in 8.0 mi ESE 23.0 mph 28.8 mph 0.04 in Rain Light Rain
5:48 PM 42.8 °F 34.0 °F 37.4 °F 81% 29.80 in 7.0 mi ESE 20.7 mph 28.8 mph 0.03 in Rain Light Rain
5:53 PM 41.0 °F 31.6 °F 37.0 °F 86% 29.80 in 7.0 mi ESE 20.7 mph 31.1 mph 0.04 in Rain Light Rain
6:53 PM 41.0 °F 31.9 °F 37.0 °F 86% 29.79 in 8.0 mi ESE 19.6 mph 25.3 mph 0.04 in Rain Light Rain
7:21 PM 41.0 °F 32.5 °F 37.4 °F 87% 29.79 in 8.0 mi ESE 17.3 mph 26.5 mph 0.01 in Rain Light Rain
7:53 PM 41.0 °F 32.2 °F 37.0 °F 86% 29.79 in 9.0 mi ESE 18.4 mph - 0.03 in Rain Light Rain
8:15 PM 41.0 °F 32.2 °F 37.4 °F 87% 29.80 in 8.0 mi ESE 18.4 mph 26.5 mph 0.01 in Rain Light Rain
8:53 PM 41.0 °F 32.8 °F 37.0 °F 86% 29.81 in 10.0 mi ESE 16.1 mph - 0.04 in Rain Light Rain
9:53 PM 41.0 °F 33.9 °F 37.0 °F 86% 29.82 in 8.0 mi ESE 12.7 mph - 0.06 in Rain Light Rain
10:53 PM 39.9 °F 33.9 °F 37.0 °F 89% 29.84 in 5.0 mi SE 9.2 mph - 0.13 in Rain Rain
11:37 PM 39.2 °F 35.0 °F 37.4 °F 93% 29.83 in 6.0 mi ESE 5.8 mph - 0.08 in Rain Rain
11:53 PM 39.0 °F 34.8 °F 37.9 °F 96% 29.83 in 6.0 mi ESE 5.8 mph - 0.11 in Rain Rain